Regional Weather Roundup
Issued by NWS Huntsville, AL

Home | Current Version | Previous Version | Text Only | Print | Product List | Glossary On
Versions: 1 2 3 4 5 6 7 8 9 10 11 12 13 14 15 16 17 18 19 20 21 22 23 24 25 26 27 28 29 30 31 32 33 34 35 36 37 38 39 40 41 42 43 44 45 46 47 48 49 50
000
ASUS44 KHUN 311810
RWRHUN

WEATHER ROUNDUP FOR THE TENNESSEE VALLEY
NATIONAL WEATHER SERVICE HUNTSVILLE AL
1200 PM CST SAT JAN 31 2015

ALZ001>004-311900-
NORTHWEST ALABAMA

CITY           SKY/WX    TMP DP  RH WIND       PRES   REMARKS
SHOALS AIRPORT PTSUNNY   48  22  35 E6        30.36F
6HR MIN TEMP:  31; 6HR MAX TEMP:  48;

$$

ALZ005>007-016-311900-
NORTH CENTRAL ALABAMA

CITY           SKY/WX    TMP DP  RH WIND       PRES   REMARKS
DECATUR AP     PTSUNNY   47  22  37 VRB3      30.36F
HUNTSVILLE AP  PTSUNNY   48  22  35 CALM      30.35F
6HR MIN TEMP:  27; 6HR MAX TEMP:  48;

HUN NWS/UAH      N/A     47  17  30 E2          N/A
MERIDIANVILLE  PTSUNNY   41  19  42 E3        30.37F
REDSTONE ARSN  CLOUDY    48  19  32 VRB3      30.35F
$$

ALZ008>010-311900-
NORTHEAST ALABAMA

CITY           SKY/WX    TMP DP  RH WIND       PRES   REMARKS
ALBERTVILLE    MOSUNNY   50  27  40 CALM      30.33F
FORT PAYNE     PTSUNNY   46  10  23 CALM      30.34F
SCOTTSBORO AP  PTSUNNY   41  21  45 NE5       30.37F
VALLEY HEAD      N/A     45 N/A N/A MISG        N/A
$$

TNZ076-096-097-311900-
SOUTHEASTERN MIDDLE TENNESSEE

CITY           SKY/WX    TMP DP  RH WIND       PRES   REMARKS
TULLAHOMA      SUNNY     41  18  38 CALM      30.35F
WINCHESTER     SUNNY     43  19  39 CALM      30.35F
$$

...SURROUNDING SITES...

CITY           SKY/WX    TMP DP  RH WIND       PRES   REMARKS
ATLANTA        PTSUNNY   49  18  29 VRB3      30.35F
ANNISTON       MOSUNNY   51  16  24 CALM      30.35F
BIRMINGHAM     PTSUNNY   53  14  21 VRB3      30.36F
CHATTANOOGA    PTSUNNY   45  16  31 N6        30.37F
CORINTH        FAIR      46  25  42 SE5       30.33F
DALTON         PTSUNNY   43  21  42 CALM      30.36F
GADSDEN        MOSUNNY  N/A N/A N/A CALM      30.35F
GOLDEN TRNGL   MOSUNNY   52  23  32 S5        30.34F
HALEYVILLE       N/A     51  11  20 CALM      30.35F
JACKSON TN     CLOUDY    44  24  45 E9        30.32F
LEWISBURG      FAIR      43  20  40 CALM      30.36F
MEMPHIS        CLOUDY    44  23  43 E7        30.32F
MURFREESBORO     N/A     41  21  44 CALM      30.37F
NASHVILLE      CLOUDY    43  23  45 E5        30.37F
OXFORD MS      FAIR      46  21  36 SE7       30.33F
ROME           PTSUNNY   46  19  34 CALM      30.35F
SAVANNAH       SUNNY     45  21  39 CALM      30.34F
TUPELO         PTSUNNY   50  21  32 SE7       30.33F
TUSCALOOSA     MOSUNNY   53  20  27 SE5       30.35F
$$

...GULF COAST WEATHER...

CITY           SKY/WX    TMP DP  RH WIND       PRES   REMARKS
GULFPORT       SUNNY     57  41  55 E10       30.30F
PASCAGOULA     SUNNY     58  40  51 VRB7      30.32F
MOBILE         PTSUNNY   56  23  27 E7        30.32F
GULF SHORES    CLEAR     57  43  59 E13       30.32F
PENSACOLA      MOSUNNY   57  41  55 E9        30.32F
DESTIN         SUNNY     57  32  38 MISG      30.32F
PANAMA CITY    SUNNY     59  30  32 VRB6      30.32F
APPALACHICOLA  SUNNY     59  36  42 E13       30.32F
$$



USA.gov is the U.S. government's official web portal to all federal, state and local government web resources and services.